Regional Weather Roundup
Issued by NWS Newport/Morehead, NC

Current Version | Previous Version | Text Only | Print | Product List | Glossary On
Versions: 1 2 3 4 5 6 7 8 9 10 11 12 13 14 15 16 17 18 19 20 21 22 23 24 25 26 27 28 29 30 31 32 33 34 35 36 37 38 39 40 41 42 43 44 45 46 47 48 49 50
957
ASUS42 KMHX 230113
RWRMHX
WEATHER ROUNDUP FOR EASTERN NORTH CAROLINA
NATIONAL WEATHER SERVICE NEWPORT/MOREHEAD CITY NC
900 PM EDT TUE AUG 22 2017

NOTE: "FAIR" INDICATES FEW OR NO CLOUDS BELOW 12,000 FEET
WITH NO SIGNIFICANT WEATHER AND/OR OBSTRUCTIONS TO VISIBILITY

NCZ015>017-031-032-045>047-102-103-230200-
NORTH COAST

CITY           SKY/WX    TMP DP  RH WIND       PRES   REMARKS
EDENTON        CLEAR     83  77  80 S9        29.96S
ELIZABETH CITY CLEAR     82  77  84 S9        29.95S
KITTY HAWK     CLEAR     82  75  81 SW6       29.96R
MANTEO         CLEAR     82  76  83 SW13      29.97S

$$

NCZ045>047-081-094-103-104-230200-
CENTRAL COAST

CITY           SKY/WX    TMP DP  RH WIND       PRES   REMARKS
FRISCO         CLEAR     83  77  82 SW12      29.99S

$$

NCZ095-097-098-100-101-230200-
SOUTHERN COAST

CITY           SKY/WX    TMP DP  RH WIND       PRES   REMARKS
BEAUFORT       PTCLDY    82  78  88 SW16      29.99S
CEDAR ISLAND   NOT AVBL
JACKSONVILLE   PTCLDY    80  77  90 S8        29.97S
PINEY ISLAND   CLEAR    N/A N/A N/A S6        29.98S
WILMINGTON     CLEAR     81  74  79 S8        29.99S


$$

NCZ011>013-027>030-043-044-078>080-089-090>093-098-230200-
COASTAL PLAIN

CITY           SKY/WX    TMP DP  RH WIND       PRES   REMARKS
AHOSKIE          N/A     78  76  94 S5        29.94S
CLINTON        CLEAR     82  75  80 S3        29.98R
ELIZABETHTOWN  NOT AVBL
GOLDSBORO      NOT AVBL
GREENVILLE     CLEAR     81  75  83 SW8       29.98S
HAVELOCK       PTCLDY    81  75  82 S8        29.99S
KENANSVILLE    PTCLDY    81  75  83 SW6       29.97S
KINSTON        PTCLDY    81  75  83 S8        29.97S
NEW BERN       CLEAR     80  77  90 S7        29.98S
RICHLANDS      CLOUDY    79  76  90 S9        29.98S
ROCKY MOUNT    CLEAR     81  76  84 S6        29.94S
WASHINGTON     CLEAR     81  76  84 S6        29.96S
WHITEVILLE     CLOUDY    81  75  83 S3        29.98S

$$

AMZ130-135-150-152-154-156-158-170-250-252-270-ANZ085-086-088-633-658-670-230200-
MARINE OBSERVATIONS

STATION/POSITION TIME  TEMP    WIND        PRES    WAVE   SWELL
                       AIR SEA DIR/SP/G            HT/PER HT/PER
                 (UTC) (F)     (DEG/KT/KT) (MB)    (FT/S) (FT/S)
CHESAPEAKE LIGHT NOT AVBL
64 E VA BEACH    0050   80 80  200/ 14/ 16 1014.8    4/ 9   3/ 9
DUCK             0042   83 72  200/ 12/ 17 1013.8
2 E DUCK         0100      78                N/A     3/11   2/11
OREGON INLET     0042   83 87  200/ 17/ 21 1014.7
13E OREGON INLT  0048      80                N/A     4/11   3/11
HATTERAS CG      0042   82 84  220/ 12/ 16 1015.3
DIAMOND BUOY     0050   84 86  220/ 17/ 21 1015.2    5/10   3/10
CAPE LOOKOUT     0000   83     210/ 12/ 14 1015.1
BEAUFORT LAB     0042   83 81  210/ 10/ 14 1015.0
30 SE NEW RVR IN 0008   81 84  230/ 14/ 17 1015.5
30 SE NEW RVR IN 0043      84                N/A     4/10   2/11
27 SE WRIGHTSVLE 0008   83 84  200/ 14/ 19 1015.3
5 SE WRIGHTSVLE  0008   83 83  210/ 14/ 19 1015.3
225 S CAPE HAT   2350   82 85  150/  6/  8 1017.3    4/ 9   5/ 9
41 SE CHARLESTON 0050   83 85  210/ 14/ 14 1015.3    5/10   5/10

$$




USA.gov is the U.S. government's official web portal to all federal, state and local government web resources and services.